Racecast

Mitchell, SD

Difficulty:i +10.3% (4000m, the usual distance here) · 110 results · 110 athletes

All 4000m
Rating scale ?

Distances raced here

DistanceDifficultyiResults FirstLast
4000m +10.3% 110 2021-08-28 2021-08-28

Best speed ratings all distances

Boys

#AthleteRatingi TimeDistSchoolDate
1 Silas Holdeman 128.4 16:29 4000m Mitchell Christian (SD) 2021-08-28
2 Pierce Baumberger 125.2 14:27.7 4000m Miller (WA) 2021-08-28
3 Pierce Stukel 122.2 17:19.2 4000m Gregory (SD) 2021-08-28
4 Ethan Harrell 121.9 17:21.3 4000m Miller (WA) 2021-08-28
5 Dom Santiago 121.8 14:52 4000m Chamberlain (SD) 2021-08-28
6 Tyson Kindle 120.9 17:29.9 4000m Miller (WA) 2021-08-28
7 Isaiah Gortmaker 120.3 17:35.7 4000m Miller (WA) 2021-08-28
8 Alex Schumacher 120.1 15:04.4 4000m Miller (WA) 2021-08-28
9 Lincoln Woodring 115.4 15:41.3 4000m Northwestern (SC) 2021-08-28
10 Park Sinclair 114.9 15:45.6 4000m Kimball/White Lake (SD) 2021-08-28
11 Carson Ewalt 114.5 18:28.8 4000m Northwestern (SC) 2021-08-28
12 Nathan Melius 114.1 15:52 4000m Northwestern (SC) 2021-08-28
13 Luke Sinclair 113.8 15:54.3 4000m Gregory (SD) 2021-08-28
14 Caden Gortmaker 113.4 15:58 4000m Miller (WA) 2021-08-28
15 Kellan Hurd 112.3 16:06.9 4000m Miller (WA) 2021-08-28
16 Justin Haven 111.6 16:13.4 4000m Northwestern (SC) 2021-08-28
17 Drew Ekstrum 110.6 16:22 4000m Kimball/White Lake (SD) 2021-08-28
18 Dawson Miller 110.0 16:27.3 4000m Kimball/White Lake (SD) 2021-08-28
19 Collin Engebretson 109.9 16:28.1 4000m Platte-Geddes (SD) 2021-08-28
20 Brock Russell 109.7 16:30.5 4000m Mitchell (NE) 2021-08-28
21 Ethan Boekelheide 109.6 16:31.1 4000m Northwestern (SC) 2021-08-28
22 Quintin Fischbach 109.2 16:35 4000m Northwestern (SC) 2021-08-28
23 Tyler Tjeerdsma 107.3 16:52 4000m Avon (IN) 2021-08-28
24 Elijah Schroeder 106.9 16:56.3 4000m Mitchell (NE) 2021-08-28
25 Jack Swanson 106.7 16:57.9 4000m Chamberlain (SD) 2021-08-28
26 TJ Daley 106.6 16:58.8 4000m Mitchell (NE) 2021-08-28
27 Gavin Gustad 106.4 17:01.1 4000m Platte-Geddes (SD) 2021-08-28
28 Max Hart 106.3 17:01.4 4000m Mitchell (NE) 2021-08-28
29 Joseph Tegethoff 106.3 17:01.7 4000m Mitchell Christian (SD) 2021-08-28
30 Braxton Gentles 104.8 17:15.9 4000m Sanborn Central/Woonsocket (SD) 2021-08-28
31 Carter Moller 104.3 17:21.6 4000m Mitchell (NE) 2021-08-28
32 Carson Ferry 104.2 17:22.8 4000m Hanson (SD) 2021-08-28
33 Ricky Larson 104.0 17:23.9 4000m Northwestern (SC) 2021-08-28
34 Jeff Boschee 103.3 17:31.1 4000m Sanborn Central/Woonsocket (SD) 2021-08-28
35 Carson Klundt 103.0 17:35 4000m Gregory (SD) 2021-08-28
36 Porter Miller 102.4 17:41 4000m Kimball/White Lake (SD) 2021-08-28
37 Sam Byers 102.1 17:43.9 4000m Chamberlain (SD) 2021-08-28
38 Emmit Holzbauer 101.7 17:48.2 4000m Platte-Geddes (SD) 2021-08-28
39 Grayson Hetland 101.7 17:48.5 4000m Mitchell (NE) 2021-08-28
40 Joshua Tucker 101.5 17:49.7 4000m Sanborn Central/Woonsocket (SD) 2021-08-28
41 Josh Thorson 101.2 17:52.8 4000m Northwestern (SC) 2021-08-28
42 Nate McCormick 101.1 17:53.9 4000m Mitchell (NE) 2021-08-28
43 Anthony Geist 100.3 18:03.1 4000m Hanson (SD) 2021-08-28
44 Lael Young 99.9 18:07.4 4000m Wagner (TX) 2021-08-28
45 Brian LaRoche 99.5 18:11.8 4000m Lower Brule (SD) 2021-08-28
46 Tony Hansum 98.8 18:19.7 4000m Andes Central/Dakota Christian (SD) 2021-08-28
47 Liam Pospisil 98.3 18:25.2 4000m Mitchell Christian (SD) 2021-08-28
48 John Fathke 97.3 18:35.9 4000m Avon (IN) 2021-08-28
49 Carson Vanden Berge 96.8 18:41.9 4000m Platte-Geddes (SD) 2021-08-28
50 Caleb Zephier 95.8 18:53.4 4000m Wagner (TX) 2021-08-28
51 Kaleb Cleveland 95.3 19:00 4000m Wolsey-Wessington (SD) 2021-08-28
52 Sam Groft 95.0 19:03.3 4000m Northwestern (SC) 2021-08-28
53 Dawson Schroeder 94.8 19:06 4000m Mitchell (NE) 2021-08-28
54 Carter Hitchcock 93.2 19:25.7 4000m Sanborn Central/Woonsocket (SD) 2021-08-28
55 Grant Timm 92.8 19:30.9 4000m Wolsey-Wessington (SD) 2021-08-28
56 Tommy Biehl 92.7 19:32.2 4000m Platte-Geddes (SD) 2021-08-28
57 Micah Frey 92.6 19:33 4000m Mitchell Christian (SD) 2021-08-28
58 Carson Walters 91.8 23:03.5 4000m Wolsey-Wessington (SD) 2021-08-28
59 Will Jarding 87.4 20:43.1 4000m Hanson (SD) 2021-08-28
60 Rodrigo de Pa Guia Munoz 86.9 20:49.2 4000m Wolsey-Wessington (SD) 2021-08-28

View all →

Girls

#AthleteRatingi TimeDistSchoolDate
1 Kinsey Evans 130.6 16:41.9 4000m Chamberlain (SD) 2021-08-28
2 Aine Graesser 130.2 18:17.1 4000m Chamberlain (SD) 2021-08-28
3 Suri Schmidt 129.6 18:22.4 4000m Mount Vernon/Plankinton (SD) 2021-08-28
4 Asia VanDerWerff 129.2 18:26.1 4000m Gregory (SD) 2021-08-28
5 Autumn Baker 128.9 18:28.4 4000m Kimball/White Lake (SD) 2021-08-28
6 Ella Boekelheide 126.5 17:14.3 4000m Northwestern (SC) 2021-08-28
7 Allison Hough 125.4 17:23.4 4000m Chamberlain (SD) 2021-08-28
8 Taziah Hawkins 124.8 19:04.3 4000m Hanson (SD) 2021-08-28
9 Emma Thomas 124.7 17:29.2 4000m Gregory (SD) 2021-08-28
10 Lexi Schoenfelder 124.3 19:09.8 4000m Andes Central/Dakota Christian (SD) 2021-08-28
11 Kylah Biggins 122.6 19:25.4 4000m Chamberlain (SD) 2021-08-28
12 Kendal Uttecht 120.5 19:45.8 4000m Wolsey-Wessington (SD) 2021-08-28
13 Gabby Werdel 116.2 20:29 4000m Miller (WA) 2021-08-28
14 Sierra Rencountre 115.1 18:57.1 4000m Gregory (SD) 2021-08-28
15 Taya Chelmo 114.8 18:59.3 4000m Kimball/White Lake (SD) 2021-08-28
16 Madeline Nye 114.5 19:02.5 4000m Miller (WA) 2021-08-28
17 Jessica Boekelheide 114.2 19:05.5 4000m Northwestern (SC) 2021-08-28
18 Christine Gaulke 114.2 19:06 4000m Kimball/White Lake (SD) 2021-08-28
19 Hannah Terkildsen 114.1 19:06.4 4000m Sanborn Central/Woonsocket (SD) 2021-08-28
20 Anna DeHaan 111.6 19:32.7 4000m Andes Central/Dakota Christian (SD) 2021-08-28
21 Alyssa Moschell 111.2 19:36.3 4000m Hanson (SD) 2021-08-28
22 Josie McCord 110.9 19:39.9 4000m Kimball/White Lake (SD) 2021-08-28
23 Cadence Jarding 110.8 19:41.4 4000m Hanson (SD) 2021-08-28
24 Eliza Oltmanns 108.7 20:03.3 4000m Hanson (SD) 2021-08-28
25 Nyomi Mahrt 107.6 20:16.3 4000m Mount Vernon/Plankinton (SD) 2021-08-28
26 Samantha Peppel 107.2 20:21 4000m Chamberlain (SD) 2021-08-28
27 Calli Slaba 105.9 20:35.9 4000m Platte-Geddes (SD) 2021-08-28
28 Lindsay Andersen 104.9 20:47.1 4000m Mitchell (NE) 2021-08-28
29 Summer Skluzak 104.4 20:53 4000m Kimball/White Lake (SD) 2021-08-28
30 Liz Boschee 103.7 22:57.3 4000m Sanborn Central/Woonsocket (SD) 2021-08-28
31 Abbie Hough 102.8 21:12.3 4000m Chamberlain (SD) 2021-08-28
32 Kyia Schmidt 102.6 21:15.7 4000m Mount Vernon/Plankinton (SD) 2021-08-28
33 Erin Dewald 102.3 21:19 4000m Hanson (SD) 2021-08-28
34 Akane Metcalfe 101.7 21:26.7 4000m Kimball/White Lake (SD) 2021-08-28
35 Ella Phillips 101.5 21:29.4 4000m Chamberlain (SD) 2021-08-28
36 Adelyn Prunty 100.5 21:41.9 4000m Mitchell (NE) 2021-08-28
37 Emily Shepherd 100.2 21:46.2 4000m Chamberlain (SD) 2021-08-28
38 Isabella Shepherd 100.1 21:46.6 4000m Chamberlain (SD) 2021-08-28
39 Reese Marek 99.1 22:00.6 4000m Hanson (SD) 2021-08-28
40 Kodi Timanus 98.4 22:09.9 4000m Gregory (SD) 2021-08-28
41 Alana Howard 97.4 22:23.3 4000m Miller (WA) 2021-08-28
42 Ryann Grussing 94.5 23:04.1 4000m Kimball/White Lake (SD) 2021-08-28
43 Mylie Bares 92.6 23:33.4 4000m Avon (IN) 2021-08-28
44 Maesa Kuhlman 92.5 23:34.3 4000m Avon (IN) 2021-08-28
45 Sonya Hansum 90.5 24:05.9 4000m Andes Central/Dakota Christian (SD) 2021-08-28
46 Trinity Boschee 86.5 25:12.2 4000m Sanborn Central/Woonsocket (SD) 2021-08-28

View all →

Best team performances by rating top-5 average rating, one race, all distances

Boys

#SchoolTop-5 avg DistMeetDate
1 Miller (WA) 121.7 4000m Mitchell Invitational 2021-08-28
2 Northwestern (SC) 113.0 4000m Mitchell Invitational 2021-08-28
3 Mitchell (NE) 106.7 4000m Mitchell Invitational 2021-08-28
4 Platte-Geddes (SD) 101.5 4000m Mitchell Invitational 2021-08-28
5 Wolsey-Wessington (SD) 86.1 4000m Mitchell Invitational 2021-08-28

View all →

Girls

#SchoolTop-5 avg DistMeetDate
1 Chamberlain (SD) 123.2 4000m Mitchell Invitational 2021-08-28
2 Kimball/White Lake (SD) 114.6 4000m Mitchell Invitational 2021-08-28
3 Hanson (SD) 111.6 4000m Mitchell Invitational 2021-08-28

View all →

Meets held here all distances

MeetLast heldDistanceResults
Mitchell Invitational 2021-08-28 4000 110

View all →